Weather History for KSMQ - February, 2014

Change the Weather History Date:

Saturday, February 15, 2014

  Actual Average Record
Temperature  
Mean Temperature 32 °F -  
Max Temperature 37 °F 41 °F 76 °F (1949)
Min Temperature 26 °F 20 °F -10 °F (1943)
Degree Days  
Heating Degree Days 34    
Moisture  
Dew Point 26 °F    
Average Humidity 79    
Maximum Humidity 92    
Minimum Humidity 56    
Precipitation  
Precipitation 0.05 in - - ()
Sea Level Pressure  
Sea Level Pressure 29.67 in    
Wind  
Wind Speed 5 mph (North)    
Max Wind Speed 17 mph    
Max Gust Speed 33 mph    
Visibility 5 miles    
Events Fog , Rain , Snow    
Averages and records for this station are not official NWS values.
T = Trace of Precipitation, MM = Missing Value Source: NWS Daily Summary

Daily Weather History Graph

Daily Weather History Graph

Search for Another Location

Airport or City:

Trip Planner

Search our weather history database for the weather conditions in past years. The results will help you decide how hot, cold, wet, or windy it might be!

Date:

Astronomy

Feb. 15, 2014 Rise Set
Actual Time 6:52 AM EST 5:33 PM EST
Civil Twilight 6:24 AM EST 6:01 PM EST
Nautical Twilight 5:52 AM EST 6:33 PM EST
Astronomical Twilight 5:20 AM EST 7:05 PM EST
Moon 6:31 PM EST (2/15) 6:49 AM EST (2/15)
Length of Visible Light 11h 37m
Length of Day
10h 41m
Full, 100% of the Moon is Illuminated
Feb 15
Full
Feb 22
Last Quarter
Mar 1
New
Mar 8
First Quarter
Mar 16
Full

Hourly Weather History & Observations

Time (EST) Temp. Windchill Dew Point Humidity Pressure Visibility Wind Dir Wind Speed Gust Speed Precip Events Conditions
12:53 AM 26.1 °F - 23.0 °F 88% 29.78 in 7.0 mi Calm Calm - N/A   Overcast
1:53 AM 27.0 °F - 23.0 °F 85% 29.79 in 8.0 mi Calm Calm - N/A   Overcast
2:53 AM 28.0 °F - 24.1 °F 85% 29.77 in 8.0 mi Calm Calm - N/A   Overcast
3:53 AM 28.9 °F - 24.1 °F 82% 29.75 in 8.0 mi Calm Calm - N/A   Overcast
4:10 AM 28.9 °F - 24.1 °F 82% 29.75 in 8.0 mi Calm Calm - N/A   Overcast
4:53 AM 28.9 °F - 24.1 °F 82% 29.75 in 8.0 mi Calm Calm - N/A   Overcast
5:32 AM 28.9 °F 23.9 °F 25.0 °F 85% 29.74 in 8.0 mi NW 4.6 mph - N/A   Overcast
5:53 AM 28.9 °F - 25.0 °F 85% 29.75 in 7.0 mi Calm Calm - N/A   Overcast
6:53 AM 30.0 °F - 25.0 °F 82% 29.72 in 9.0 mi Calm Calm - N/A   Overcast
7:53 AM 33.1 °F 28.7 °F 24.1 °F 70% 29.73 in 10.0 mi East 4.6 mph - N/A   Mostly Cloudy
8:53 AM 35.1 °F 30.1 °F 25.0 °F 67% 29.73 in 9.0 mi NE 5.8 mph - N/A   Overcast
9:53 AM 36.0 °F - 25.0 °F 64% 29.70 in 9.0 mi North - - N/A   Overcast
10:53 AM 37.0 °F 32.4 °F 25.0 °F 62% 29.68 in 9.0 mi Variable 5.8 mph - N/A   Overcast
11:38 AM 37.0 °F 30.4 °F 27.0 °F 67% 29.66 in 7.0 mi East 9.2 mph 23.0 mph N/A   Overcast
11:53 AM 36.0 °F 28.5 °F 27.0 °F 70% 29.66 in 4.0 mi ENE 10.4 mph 19.6 mph 0.00 in Snow Light Snow
11:57 AM 35.1 °F 27.9 °F 28.0 °F 76% 29.64 in 1.8 mi East 9.2 mph 19.6 mph 0.00 in Snow Light Snow
12:15 PM 34.0 °F 28.0 °F 30.0 °F 85% 29.64 in 0.8 mi NNE 6.9 mph - 0.01 in Snow Light Snow
12:53 PM 33.1 °F 26.1 °F 30.0 °F 89% 29.62 in 1.0 mi North 8.1 mph - 0.02 in Snow Light Snow
1:32 PM 33.1 °F 26.9 °F 30.0 °F 89% 29.59 in 0.8 mi North 6.9 mph - 0.01 in Snow Light Snow
1:39 PM 33.1 °F 25.5 °F 30.0 °F 89% 29.59 in 1.0 mi North 9.2 mph - 0.02 in Snow Light Snow
1:41 PM 33.1 °F 26.1 °F 30.0 °F 89% 29.58 in 1.0 mi North 8.1 mph - 0.02 in Snow Light Snow
1:53 PM 33.1 °F 25.5 °F 30.0 °F 89% 29.59 in 1.2 mi North 9.2 mph - 0.02 in Snow Light Snow
2:01 PM 33.1 °F 24.9 °F 30.0 °F 89% 29.57 in 1.2 mi North 10.4 mph - 0.00 in Snow Light Snow
2:20 PM 33.1 °F 24.9 °F 28.9 °F 85% 29.60 in 1.8 mi North 10.4 mph 19.6 mph 0.00 in Snow Light Snow
2:53 PM 32.0 °F 24.2 °F 28.0 °F 85% 29.62 in 1.8 mi North 9.2 mph 20.7 mph 0.01 in Snow Light Snow
3:01 PM 32.0 °F 22.5 °F 28.0 °F 85% 29.61 in 2.0 mi North 12.7 mph 18.4 mph 0.00 in Snow Light Snow
3:10 PM 32.0 °F 24.8 °F 28.0 °F 85% 29.62 in 1.5 mi North 8.1 mph 20.7 mph 0.00 in Snow Light Snow
3:24 PM 32.0 °F 24.2 °F 28.9 °F 88% 29.61 in 1.2 mi North 9.2 mph - 0.00 in Snow Light Snow
3:40 PM 30.9 °F 21.7 °F 28.9 °F 92% 29.62 in 0.5 mi North 11.5 mph 19.6 mph 0.00 in Fog , Snow Light Snow
3:53 PM 30.9 °F 22.8 °F 28.9 °F 92% 29.62 in 0.5 mi North 9.2 mph - 0.00 in Fog , Snow Snow
4:22 PM 32.0 °F 24.2 °F 30.0 °F 92% 29.61 in 0.5 mi NNW 9.2 mph - 0.00 in Fog , Snow Snow
4:39 PM 32.0 °F 24.2 °F 30.0 °F 92% 29.61 in 1.0 mi NNW 9.2 mph - 0.00 in Snow Light Snow
4:53 PM 32.0 °F 24.8 °F 30.0 °F 92% 29.64 in 1.0 mi NNW 8.1 mph - 0.00 in Snow Light Snow
5:25 PM 32.0 °F 26.4 °F 30.0 °F 92% 29.64 in 2.5 mi NNW 5.8 mph - 0.00 in Snow Light Snow
5:34 PM 33.1 °F 23.9 °F 28.9 °F 85% 29.64 in 4.0 mi NNW 12.7 mph - 0.00 in Snow Light Snow
5:53 PM 34.0 °F 26.0 °F 28.0 °F 79% 29.65 in 10.0 mi NNW 10.4 mph - 0.00 in   Overcast
6:53 PM 33.1 °F 23.9 °F 27.0 °F 78% 29.68 in 10.0 mi NNW 12.7 mph 20.7 mph N/A   Overcast
7:53 PM 33.1 °F 22.6 °F 23.0 °F 66% 29.68 in 10.0 mi NW 16.1 mph 23.0 mph N/A   Overcast
8:25 PM 33.1 °F 22.6 °F 21.0 °F 61% 29.68 in 1.8 mi NW 16.1 mph 31.1 mph 0.00 in Rain Light Rain
8:40 PM 32.0 °F 22.1 °F 19.9 °F 61% 29.69 in 3.0 mi NNW 13.8 mph 28.8 mph 0.00 in Rain Light Rain
8:53 PM 32.0 °F 23.0 °F 19.9 °F 61% 29.71 in 10.0 mi NNW 11.5 mph 21.9 mph 0.00 in   Mostly Cloudy
9:53 PM 30.0 °F 18.3 °F 17.1 °F 59% 29.74 in 3.0 mi NNW 17.3 mph 33.4 mph 0.00 in   Partly Cloudy
10:53 PM 28.0 °F 16.5 °F 14.0 °F 56% 29.78 in 9.0 mi NNW 15.0 mph 27.6 mph 0.00 in   Mostly Cloudy
11:53 PM 26.1 °F 14.0 °F 12.9 °F 58% 29.80 in 8.0 mi NW 15.0 mph 32.2 mph 0.00 in   Scattered Clouds